When you browse on this site, cookies collect data to enhance your experience and personalize the content and advertising you see.
Visit our Privacy Policy to learn more. By continuing to use the site, you agree to this use of cookies and data.
EN

Hourly Weather Buczyna

Today, 13 July, Monday

Time Temperature Precipitation Wind Pressure Humidity
00:00 +11°C° 0 mm 3 mps 760 mmHg 95%
01:00 +11°C° 0 mm 3 mps 760 mmHg 96%
02:00 +11°C° 0.1 mm 3 mps 760 mmHg 95%
03:00 +11°C° 0.1 mm 3 mps 759 mmHg 95%
04:00 +11°C° 0.1 mm 3 mps 759 mmHg 94%
05:00 +12°C° 0.1 mm 3 mps 759 mmHg 91%
06:00 +13°C° 0.1 mm 4 mps 759 mmHg 88%
07:00 +14°C° 0.1 mm 4 mps 759 mmHg 85%
08:00 +15°C° 0.1 mm 4 mps 759 mmHg 79%
09:00 +17°C° 0.1 mm 4 mps 759 mmHg 73%
10:00 +17°C° 0.1 mm 5 mps 759 mmHg 67%
11:00 +19°C° 0 mm 5 mps 759 mmHg 64%
12:00 +20°C° 0 mm 5 mps 759 mmHg 61%
13:00 +20°C° 0 mm 5 mps 759 mmHg 57%
14:00 +20°C° 0 mm 4 mps 758 mmHg 58%
15:00 +20°C° 0 mm 4 mps 758 mmHg 58%
16:00 +20°C° 0 mm 4 mps 757 mmHg 58%
17:00 +19°C° 0 mm 3 mps 757 mmHg 64%
18:00 +18°C° 0 mm 3 mps 757 mmHg 70%
19:00 +17°C° 0 mm 2 mps 757 mmHg 75%
20:00 +15°C° 0 mm 2 mps 757 mmHg 79%
21:00 +14°C° 0 mm 1 mps 757 mmHg 82%
22:00 +12°C° 0 mm 1 mps 757 mmHg 86%
23:00 +12°C° 0 mm 1 mps 757 mmHg 85%

Tomorrow, 14 July, Tuesday

Time Temperature Precipitation Wind Pressure Humidity
00:00 +12°C° 0 mm 1 mps 756 mmHg 85%
01:00 +12°C° 0 mm 1 mps 756 mmHg 84%
02:00 +11°C° 0 mm 1 mps 756 mmHg 85%
03:00 +11°C° 0 mm 1 mps 756 mmHg 87%
04:00 +11°C° 0 mm 1 mps 755 mmHg 88%
05:00 +13°C° 0 mm 2 mps 755 mmHg 84%
06:00 +15°C° 0 mm 2 mps 755 mmHg 80%
07:00 +17°C° 0 mm 2 mps 755 mmHg 75%
08:00 +18°C° 0 mm 2 mps 755 mmHg 70%
09:00 +20°C° 0 mm 3 mps 755 mmHg 65%
10:00 +21°C° 0 mm 3 mps 755 mmHg 60%
11:00 +22°C° 0 mm 3 mps 754 mmHg 57%
12:00 +22°C° 0 mm 3 mps 754 mmHg 54%
13:00 +24°C° 0 mm 2 mps 754 mmHg 51%
14:00 +24°C° 0 mm 2 mps 753 mmHg 52%
15:00 +24°C° 0 mm 2 mps 753 mmHg 52%
16:00 +24°C° 0 mm 2 mps 753 mmHg 53%
17:00 +23°C° 0 mm 2 mps 752 mmHg 58%
18:00 +21°C° 0 mm 2 mps 752 mmHg 63%
19:00 +20°C° 0 mm 2 mps 752 mmHg 68%
20:00 +19°C° 0 mm 2 mps 752 mmHg 69%
21:00 +18°C° 0 mm 3 mps 752 mmHg 71%
22:00 +17°C° 0 mm 3 mps 752 mmHg 73%
23:00 +16°C° 0 mm 3 mps 752 mmHg 74%

Day after tomorrow, 15 July, Wednesday

Time Temperature Precipitation Wind Pressure Humidity
00:00 +16°C° 0 mm 2 mps 752 mmHg 75%
01:00 +16°C° 0 mm 2 mps 752 mmHg 77%
02:00 +16°C° 0.1 mm 2 mps 751 mmHg 79%
03:00 +15°C° 0.1 mm 2 mps 751 mmHg 82%
04:00 +15°C° 0.1 mm 2 mps 751 mmHg 84%
05:00 +15°C° 0.1 mm 2 mps 751 mmHg 85%
06:00 +16°C° 0.1 mm 2 mps 751 mmHg 85%
07:00 +17°C° 0.1 mm 2 mps 751 mmHg 85%
08:00 +18°C° 0.4 mm 2 mps 750 mmHg 83%
09:00 +19°C° 0.4 mm 1 mps 750 mmHg 81%
10:00 +20°C° 0.4 mm 1 mps 750 mmHg 79%
11:00 +20°C° 1.1 mm 2 mps 750 mmHg 78%
12:00 +20°C° 1.1 mm 2 mps 750 mmHg 78%
13:00 +20°C° 1.1 mm 2 mps 750 mmHg 77%
14:00 +19°C° 0.9 mm 3 mps 750 mmHg 82%
15:00 +18°C° 0.9 mm 3 mps 750 mmHg 86%
16:00 +17°C° 0.9 mm 3 mps 750 mmHg 90%
17:00 +17°C° 0.4 mm 3 mps 750 mmHg 92%
18:00 +16°C° 0.4 mm 3 mps 750 mmHg 94%
19:00 +16°C° 0.4 mm 3 mps 750 mmHg 96%
20:00 +14°C° 0.8 mm 3 mps 750 mmHg 97%
21:00 +14°C° 0.8 mm 3 mps 750 mmHg 97%
22:00 +14°C° 0.8 mm 3 mps 750 mmHg 97%
23:00 +13°C° 2.2 mm 3 mps 750 mmHg 97%

16 July, Thursday

Time Temperature Precipitation Wind Pressure Humidity
00:00 +13°C° 2.2 mm 3 mps 750 mmHg 97%
01:00 +13°C° 2.2 mm 3 mps 750 mmHg 97%
02:00 +13°C° 0.4 mm 3 mps 750 mmHg 97%
03:00 +12°C° 0.4 mm 3 mps 750 mmHg 97%
04:00 +13°C° 0.4 mm 2 mps 750 mmHg 97%
05:00 +13°C° 0.1 mm 3 mps 750 mmHg 95%
06:00 +14°C° 0.1 mm 3 mps 750 mmHg 93%
07:00 +16°C° 0.1 mm 3 mps 750 mmHg 91%
08:00 +15°C° 0.3 mm 4 mps 750 mmHg 88%
09:00 +17°C° 0.3 mm 4 mps 750 mmHg 84%
10:00 +17°C° 0.3 mm 4 mps 751 mmHg 81%
11:00 +18°C° 0.2 mm 4 mps 751 mmHg 79%
12:00 +18°C° 0.2 mm 4 mps 751 mmHg 78%
13:00 +18°C° 0.2 mm 4 mps 751 mmHg 76%
14:00 +18°C° 0.1 mm 4 mps 751 mmHg 74%
15:00 +18°C° 0.1 mm 4 mps 751 mmHg 73%
16:00 +17°C° 0.1 mm 5 mps 751 mmHg 71%
17:00 +18°C° 0 mm 4 mps 751 mmHg 77%
18:00 +17°C° 0 mm 3 mps 751 mmHg 82%
19:00 +16°C° 0 mm 2 mps 751 mmHg 88%
20:00 +16°C° 0.6 mm 2 mps 751 mmHg 91%
21:00 +15°C° 0.6 mm 2 mps 751 mmHg 94%
22:00 +15°C° 0.6 mm 2 mps 751 mmHg 98%
23:00 +14°C° 1.3 mm 3 mps 751 mmHg 97%

17 July, Friday

Time Temperature Precipitation Wind Pressure Humidity
00:00 +14°C° 1.3 mm 3 mps 751 mmHg 97%
01:00 +15°C° 1.3 mm 4 mps 751 mmHg 97%
02:00 +15°C° 0.4 mm 4 mps 751 mmHg 96%
03:00 +15°C° 0.4 mm 4 mps 751 mmHg 96%
04:00 +15°C° 0.4 mm 4 mps 751 mmHg 96%
05:00 +15°C° 0.1 mm 4 mps 751 mmHg 95%
06:00 +17°C° 0.1 mm 4 mps 751 mmHg 94%
07:00 +17°C° 0.1 mm 4 mps 751 mmHg 93%
08:00 +18°C° 0.5 mm 4 mps 752 mmHg 87%
09:00 +20°C° 0.5 mm 5 mps 752 mmHg 82%
10:00 +21°C° 0.5 mm 6 mps 752 mmHg 76%
11:00 +21°C° 0.2 mm 6 mps 752 mmHg 73%
12:00 +22°C° 0.2 mm 6 mps 752 mmHg 69%
13:00 +23°C° 0.2 mm 6 mps 753 mmHg 66%
14:00 +22°C° 0.2 mm 6 mps 753 mmHg 66%
15:00 +22°C° 0.2 mm 6 mps 753 mmHg 66%
16:00 +22°C° 0.2 mm 6 mps 753 mmHg 67%
17:00 +21°C° 0 mm 5 mps 753 mmHg 70%
18:00 +20°C° 0 mm 4 mps 753 mmHg 74%
19:00 +18°C° 0 mm 4 mps 753 mmHg 78%
20:00 +17°C° 0 mm 3 mps 754 mmHg 82%
21:00 +16°C° 0 mm 3 mps 754 mmHg 87%
22:00 +14°C° 0 mm 2 mps 754 mmHg 92%
23:00 +14°C° 0 mm 2 mps 754 mmHg 91%

18 July, Saturday

Time Temperature Precipitation Wind Pressure Humidity
00:00 +14°C° 0 mm 2 mps 754 mmHg 91%
01:00 +13°C° 0 mm 2 mps 754 mmHg 91%
02:00 +13°C° 0 mm 2 mps 754 mmHg 92%
03:00 +13°C° 0 mm 2 mps 754 mmHg 92%
04:00 +13°C° 0 mm 2 mps 754 mmHg 92%
05:00 +15°C° 0 mm 2 mps 754 mmHg 89%
06:00 +17°C° 0 mm 3 mps 754 mmHg 86%
07:00 +18°C° 0 mm 3 mps 754 mmHg 83%
08:00 +19°C° 0.4 mm 4 mps 754 mmHg 80%
09:00 +20°C° 0.4 mm 4 mps 754 mmHg 76%
10:00 +21°C° 0.4 mm 5 mps 754 mmHg 73%
11:00 +22°C° 0.6 mm 5 mps 754 mmHg 71%
12:00 +22°C° 0.6 mm 5 mps 754 mmHg 70%
13:00 +22°C° 0.6 mm 4 mps 753 mmHg 69%
14:00 +22°C° 0.1 mm 4 mps 753 mmHg 68%
15:00 +22°C° 0.1 mm 4 mps 753 mmHg 68%
16:00 +22°C° 0.1 mm 3 mps 753 mmHg 67%
17:00 +21°C° 0 mm 3 mps 753 mmHg 72%
18:00 +20°C° 0 mm 2 mps 752 mmHg 77%
19:00 +19°C° 0 mm 2 mps 752 mmHg 82%
20:00 +19°C° 0 mm 1 mps 752 mmHg 85%
21:00 +18°C° 0 mm 1 mps 752 mmHg 88%
22:00 +14°C° 0 mm 0 mps 752 mmHg 91%
23:00 +15°C° 0 mm 1 mps 752 mmHg 92%
Show more